CanjetBLOCKVirtuelBLOCKQcBLOCKBLOCKBLOCKBLOCKBLOCKBLOCKBLOCKBLOCKBLOCKBLOCKBLOCKvolsBLOCKavecBLOCKFS-kACARS2022-09-25BLOCK07colon33am

volsBLOCKBLOCKBLOCKBLOCKBLOCKpilotesBLOCKBLOCKBLOCKBLOCKBLOCKBLOCKBLOCKBLOCKtypeBLOCKBLOCKdepBLOCKBLOCKarrBLOCKBLOCKBLOCKBLOCKBLOCKaltBLOCKBLOCKBLOCKBLOCKBLOCKgsBLOCKBLOCKBLOCKBLOCKstatut

CJA7797ClaudeBLOCKLB744SBGL-CYYZ33855ft408kts07colon55am












BLOCKAppuyerBLOCKsurBLOCKF5BLOCKpourBLOCKactualiserBLOCKBLOCKBLOCKMiseBLOCKaBLOCKjourcolonBLOCK07colon33colon17amCanjetBLOCKvirtuelBLOCKQC

Bienvenue

Publié par Michel Ayotte le 2022-01-19

Bienvenue aux nouveaux pilotes chez Canjetvirtuel-Québec 

 

 

5 très bonnes raisons de devenir pilote | Collège iFly

Vous trouverez votre place comme pilote chez nous!


Bienvenue chez Canjetvirtuel-Q

Publié par Michel Ayotte le 2013-06-14

 

Canjetvirtuel-Québec est une compagnie aérienne virtuelle qui a été fondée par 2 passionnés de la simulation de vol.

Elle est opérée avec les Boeing 737. Exceptionnelement et pour votre plaisir tous les autres versions de Boeing et Airbus sont autorisées.

Ces appareils pouvant faire des vols cargos ou des vols passagers, que ce soit au Canada, Europe, États-Unis, Mexique, Caraïbes et autres destinations mondiales.

Vous trouverez votre place comme pilote chez nous!



Avis

Aux fins de la simulation de vol seulement. CanjetVirtuel Québec n'est en aucun cas affilié avec n'importe quelle compagnie aérienne du monde réel. CanjetVirtuel Québec est un site à but non lucratif gérée par des amateurs de simulation de vol. Toutes les images sont la propriété exclusive de leurs propriétaires respectifs.
| propulsé par phpVMS, © 2013-2020.

Notice

For flight simulation purposes only. CanjetVirtuel Quebec is in no way affiliated with any real world airline. CanjetVirtuel Quebec is a non-profit site run by flight simulation enthusiasts. All images are the sole property of their respective owners.
| powered by phpVMS, © 2013-2020.

Affiliations

Vatsim

Les statistiques du site

Nombre de pilotes: 14
Total des vols effectués: 8744
Trajets disponibles: 736
Passagers transportés: 2156182
Total des heures de vol: 29782
Distance totale (NM): 11646738
Pilotes en ligne: 1

Nouvelles

Bienvenue
01/19/2022
Bienvenue chez Canjetvirtuel-Q
06/14/2013

METAR

CYHZ 251100Z 26011KT 15SM FEW030 FEW240 10/07 A2971 RMK SC1CI1 SC TR CI TR SLP066

CYQB 251100Z 25008KT 30SM BKN007 BKN050 BKN160 08/07 A2970 RMK ST7SC1AC1 SC TR AC TR VIS LWR W-N SLP062

CYUL 251100Z 22006KT 30SM FEW060 FEW110 OVC140 12/10 A2972 RMK CF1AC2AC6 CF TR SLP065

CYYZ 251100Z 08004KT 4SM -RA BR FEW020 BKN040 OVC075 14/14 A2962 RMK SF2SC5AC1 SLP031 DENSITY ALT 1000FT